[[{"header":{"parameterUnit":"m.s-1","parameterCategory":1,"la1":30.2991,"la2":30.254,"lo1":-89.0895,"lo2":-89.0444,"dy":0.0017,"dx":0.0017,"nx":28,"ny":28,"refTime":"2024-06-27T21:00:00:Z","depth":0,"parameterNumber":2,"parameterNumberName":"U-component_of_WINDS"},"data":[0,0,0,0,0,0,0,0,0,0,0,0,0,0,0,0,0,0,0,0,0,0,0,0,0,0,0,0,0,0,0,0,0,0,0,0,0,0,0,0,0,0,0,0,0,0,0,0,0,0,0,0,0,0,0,0,0,0,6.4434,6.4436,0,6.4619,6.4621,6.4623,6.4595,6.4592,6.4589,6.4586,6.4775,6.4783,6.4791,0,0,0,0,0,0,0,0,0,0,0,0,0,6.4056,6.4063,6.4434,6.4436,6.4438,6.4618,6.4621,6.4624,6.4596,6.4592,6.4588,6.4585,6.4773,6.4782,6.4791,0,0,0,0,0,0,0,0,0,0,0,0,0,6.4228,6.4065,6.4433,6.4446,6.4449,6.4618,6.4621,6.4624,6.4597,6.4592,6.4587,6.4583,6.4769,6.4781,6.4793,6.496,0,0,6.4829,6.4834,0,0,0,0,0,0,0,0,6.4218,6.4242,6.4442,6.4446,6.4449,6.4579,6.4557,6.4737,6.4598,6.4541,6.4586,6.4581,6.4714,6.473,6.4775,6.4969,6.4977,6.483,6.4838,6.4843,6.4846,0,0,0,0,0,0,0,6.4206,6.4234,6.4507,6.4445,6.4449,6.4443,6.4462,6.4591,6.4651,6.4545,6.4544,6.4566,6.4715,6.4764,6.4779,6.498,6.483,6.4841,6.4848,6.4853,6.532,6.5325,0,0,0,0,0,0,6.4191,6.4224,6.4501,6.4512,6.432,6.4453,6.4475,6.4542,6.465,6.4662,6.457,6.4564,6.4745,6.4765,6.4786,6.4988,6.4843,6.4854,6.4861,6.5315,6.5322,6.5327,0,0,0,0,0,0,6.4183,6.4216,6.4493,6.4368,6.4403,6.4465,6.4541,6.4548,6.4597,6.4668,6.4679,6.4609,6.4743,6.4769,6.4917,6.4994,6.4859,6.487,6.5309,6.5317,6.5324,6.5395,0,0,0,0,0,0,6.4172,6.4213,6.4278,6.437,6.441,6.4622,6.4545,6.4555,6.4618,6.4612,6.4707,6.4719,6.4741,6.4899,6.4929,6.5008,6.4879,6.5302,6.5313,6.5322,6.5386,6.5404,6.542,0,0,0,0,0,6.4159,6.429,6.4281,6.4314,6.4491,6.4626,6.4649,6.4672,6.4624,6.4689,6.4735,6.4716,6.4981,6.4915,6.4948,6.5032,6.5297,6.531,6.5321,6.5378,6.54,6.5419,0,0,0,0,0,0,6.4205,6.4302,6.4293,6.4458,6.4534,6.4621,6.4704,6.4695,6.4786,6.4777,6.4802,6.4823,6.4973,6.5018,6.4942,6.5199,6.5133,6.5152,6.5165,6.5186,6.5203,6.5189,6.4889,0,0,0,0,0,6.4234,6.4336,6.4416,6.4553,6.4592,6.4642,6.4701,6.4713,6.4792,6.4824,6.4881,6.4959,6.506,6.5126,6.5223,6.5392,6.5412,6.5467,6.5484,6.5497,6.5513,6.5605,6.563,6.5366,6.5366,6.5366,0,0,6.4296,6.4362,6.4424,6.4564,6.4624,6.4729,6.4669,6.4782,6.486,6.4841,6.4984,6.5029,6.5118,6.5277,6.535,6.5319,6.559,6.5512,6.5523,6.5531,6.562,6.5645,6.5667,6.5374,6.5373,6.5372,0,0,6.4461,6.4521,6.4642,6.4704,6.4797,6.4829,6.4858,6.4947,6.4976,6.512,6.5109,6.5201,6.5375,6.5439,6.5494,6.5684,6.5669,6.5715,6.5803,6.5893,6.5913,6.5932,6.5998,6.6022,6.5731,6.5731,6.5731,0,6.4525,6.4683,6.4706,6.4821,6.4882,6.4871,6.4994,6.5053,6.5172,6.5214,6.5178,6.5395,6.5454,6.5628,6.5674,6.572,6.5753,6.5703,6.5909,6.5927,6.5945,6.6009,6.6034,6.5736,6.5735,6.5735,6.5734,0,6.4757,6.4866,6.4953,6.5069,6.514,6.5259,6.5299,6.5369,6.5374,6.541,6.5557,6.5628,6.5738,6.5781,6.5787,6.5956,6.5933,6.5903,6.5836,6.5974,6.6035,6.6059,6.5743,6.5741,6.5739,6.5738,0,0,6.4955,6.5082,6.5114,6.5166,6.5267,6.5352,6.547,6.5578,6.5637,6.572,6.5819,6.5967,6.5939,6.6001,6.6015,6.6094,6.6239,6.6053,6.6056,6.6084,6.6427,6.6448,6.6476,6.623,6.6235,6.6239,6.6419,0,6.5128,6.5336,6.5361,6.5546,6.5647,6.5638,6.5741,6.5814,6.5851,6.5942,6.5983,6.6087,6.6043,6.6081,6.6159,6.6205,6.6308,6.6192,6.6321,6.6326,6.6297,6.6508,6.6531,6.6698,6.6443,6.6447,6.645,0,6.5359,6.5448,6.5643,6.5731,6.5774,6.5866,6.5967,6.6055,6.6137,6.6159,6.6229,6.6233,6.6354,6.6284,6.645,6.6371,6.6426,6.6457,6.6464,6.6475,6.6395,6.6524,6.6752,6.6776,6.6488,6.6485,6.6482,0,6.5481,6.5651,6.579,6.5835,6.5941,6.6005,6.6052,6.6131,6.6194,6.6283,6.6325,6.6427,6.6482,6.6561,6.6591,6.6538,6.6756,6.6689,6.6777,6.6776,6.6821,6.6818,6.7059,6.686,6.686,6.6859,6.6859,0,6.5672,6.5791,6.5846,6.5931,6.6065,6.6092,6.6223,6.6267,6.6337,6.643,6.643,6.6517,6.6554,6.6647,6.6672,6.6805,6.6831,6.6851,6.6856,6.685,6.6847,6.6885,6.6873,6.6866,6.6864,6.6863,6.6862,0,6.5831,6.5873,6.6023,6.6111,6.6136,6.6231,6.6306,6.6388,6.6425,6.6542,6.6572,6.6629,6.6739,6.6778,6.6911,6.6928,6.7082,6.7078,6.7054,6.7055,6.7139,6.713,6.7412,6.745,6.7227,6.7229,6.7231,0,6.5949,6.604,6.6139,6.6201,6.6251,6.6352,6.6417,6.6448,6.6515,6.6617,6.6686,6.6796,6.6884,6.7059,6.7113,6.7215,6.7212,6.7304,6.7227,6.7218,6.7211,6.7205,6.7213,6.7317,6.732,6.7321,6.7323,0,6.6153,6.6169,6.6263,6.6365,6.6443,6.6525,6.6603,6.6655,6.6697,6.6773,6.6885,6.6954,6.709,6.7198,6.7303,6.735,6.7344,6.7347,6.7372,6.7366,6.7348,6.7357,6.7091,6.734,6.7338,6.7337,6.7336,6.7335,6.6294,6.6375,6.6457,6.6561,6.6624,6.6698,6.6779,6.6826,6.6921,6.7034,6.7046,6.7167,6.7247,6.7387,6.744,6.7534,6.7508,6.7546,6.7555,6.7563,6.7568,6.7335,6.7553,6.7553,6.7552,6.7552,6.7552,0,6.6497,6.6549,6.6646,6.6756,6.6839,6.6826,6.6913,6.6982,6.7088,6.7164,6.7252,6.738,6.7485,6.7547,6.7652,6.7715,6.7715,6.7742,6.7736,6.7747,6.7586,6.7553,6.774,6.774,6.774,6.774,6.774,6.774,6.6612,6.6747,6.6774,6.694,6.6992,6.711,6.716,6.7228,6.7289,6.7433,6.752,6.756,6.763,6.774,6.7835,6.7851,6.7889,6.7918,6.7931,6.7778,6.7759,6.774,6.7709,6.7926,6.7926,6.8084,6.8085,6.8086]},{"header":{"parameterUnit":"m.s-1","parameterCategory":1,"la1":30.2991,"la2":30.254,"lo1":-89.0895,"lo2":-89.0444,"dy":0.0017,"dx":0.0017,"nx":28,"ny":28,"refTime":"2024-06-27T21:00:00:Z","depth":0,"parameterNumber":3,"parameterNumberName":"V-component_of_WINDS"},"data":[0,0,0,0,0,0,0,0,0,0,0,0,0,0,0,0,0,0,0,0,0,0,0,0,0,0,0,0,0,0,0,0,0,0,0,0,0,0,0,0,0,0,0,0,0,0,0,0,0,0,0,0,0,0,0,0,0,0,2.3479,2.348,0,2.354,2.3541,2.3541,2.3521,2.352,2.3518,2.3517,2.3579,2.3582,2.3584,0,0,0,0,0,0,0,0,0,0,0,0,0,2.3345,2.3348,2.3479,2.348,2.3481,2.354,2.3541,2.3541,2.3521,2.352,2.3518,2.3516,2.3578,2.3581,2.3585,0,0,0,0,0,0,0,0,0,0,0,0,0,2.3404,2.3349,2.3479,2.3478,2.3478,2.354,2.3541,2.3542,2.3522,2.352,2.3518,2.3516,2.3577,2.3581,2.3585,2.3651,0,0,2.3598,2.36,0,0,0,0,0,0,0,0,2.3401,2.3409,2.3477,2.3478,2.3479,2.3521,2.3516,2.3578,2.3522,2.3505,2.3517,2.3515,2.3561,2.3567,2.3582,2.3654,2.3657,2.3599,2.3601,2.3603,2.3604,0,0,0,0,0,0,0,2.3397,2.3407,2.3503,2.3478,2.3479,2.3474,2.348,2.3528,2.3543,2.3506,2.3505,2.3513,2.3561,2.3578,2.3584,2.3658,2.3599,2.3602,2.3605,2.3607,2.3786,2.3788,0,0,0,0,0,0,2.3393,2.3403,2.3501,2.3505,2.3434,2.3478,2.3485,2.3509,2.3543,2.3546,2.3514,2.3511,2.3572,2.3579,2.3586,2.3665,2.3603,2.3607,2.361,2.3784,2.3787,2.3789,0,0,0,0,0,0,2.339,2.3401,2.3499,2.3454,2.3466,2.3482,2.351,2.3512,2.3529,2.3549,2.3551,2.3529,2.357,2.358,2.3635,2.3667,2.3609,2.3613,2.3781,2.3785,2.3788,2.3824,0,0,0,0,0,0,2.3386,2.3401,2.3426,2.3455,2.3468,2.3548,2.3512,2.3514,2.3536,2.3533,2.3563,2.3566,2.357,2.3629,2.3639,2.3671,2.3616,2.3779,2.3783,2.3787,2.382,2.3828,2.3835,0,0,0,0,0,2.3381,2.3434,2.3428,2.3439,2.3501,2.3549,2.3557,2.356,2.3539,2.3564,2.3577,2.3565,2.3661,2.3635,2.3646,2.368,2.3777,2.3782,2.3786,2.3817,2.3826,2.3835,0,0,0,0,0,0,2.3409,2.3438,2.3431,2.3494,2.352,2.3546,2.3578,2.3571,2.3602,2.3598,2.36,2.3607,2.3664,2.3678,2.3647,2.3746,2.3716,2.3723,2.3735,2.3744,2.3751,2.3747,2.362,0,0,0,0,0,2.3422,2.346,2.3483,2.3537,2.355,2.3562,2.3583,2.3583,2.3609,2.362,2.3637,2.3663,2.3698,2.3722,2.3756,2.3822,2.3828,2.3851,2.3858,2.3864,2.3871,2.3905,2.3916,2.3805,2.3805,2.3805,0,0,2.3451,2.3471,2.3495,2.3543,2.3562,2.3601,2.3571,2.3613,2.3641,2.3626,2.368,2.3693,2.3721,2.3782,2.381,2.3795,2.3902,2.3871,2.3875,2.3878,2.3912,2.3922,2.3931,2.3808,2.3808,2.3807,0,0,2.3522,2.3541,2.3588,2.3608,2.3638,2.3645,2.3657,2.3684,2.3692,2.3746,2.3735,2.3768,2.3831,2.3851,2.387,2.3948,2.3938,2.3959,2.3998,2.4032,2.404,2.4048,2.4075,2.4085,2.3965,2.3965,2.3966,0,2.3553,2.3611,2.3613,2.3655,2.3677,2.3665,2.3712,2.3731,2.3771,2.3785,2.3769,2.3846,2.3864,2.3929,2.3948,2.3964,2.3976,2.3956,2.4039,2.4047,2.4054,2.408,2.409,2.3968,2.3968,2.3967,2.3967,0,2.3647,2.3687,2.3721,2.376,2.3785,2.3829,2.3838,2.3863,2.3861,2.387,2.3924,2.3946,2.3984,2.3999,2.3998,2.4064,2.4054,2.4038,2.4008,2.4067,2.4091,2.4101,2.3971,2.397,2.397,2.3969,0,0,2.3738,2.3776,2.3789,2.3805,2.3837,2.3868,2.3912,2.3949,2.397,2.3998,2.4034,2.4087,2.4072,2.4093,2.4094,2.4124,2.4183,2.4104,2.4105,2.4118,2.4256,2.4268,2.4279,2.4177,2.4179,2.418,2.4254,0,2.3811,2.3888,2.3891,2.3961,2.3998,2.3987,2.4025,2.4048,2.4058,2.409,2.4101,2.4137,2.4116,2.4128,2.4158,2.417,2.4211,2.4165,2.421,2.4212,2.4203,2.4292,2.4304,2.4373,2.4263,2.4265,2.4266,0,2.3906,2.3937,2.4011,2.4037,2.4052,2.4086,2.412,2.4151,2.4177,2.4182,2.4206,2.4202,2.4246,2.4214,2.4275,2.4243,2.4262,2.4271,2.4273,2.4278,2.4242,2.4298,2.4395,2.4405,2.4281,2.428,2.4279,0,2.3964,2.4023,2.4075,2.409,2.4122,2.4146,2.416,2.4184,2.4206,2.4236,2.425,2.4284,2.4303,2.433,2.4335,2.4311,2.4395,2.4364,2.44,2.44,2.4418,2.4416,2.4518,2.4431,2.443,2.443,2.443,0,2.4045,2.4091,2.4101,2.4133,2.4184,2.4186,2.4236,2.4248,2.427,2.4303,2.4296,2.4328,2.4333,2.4365,2.4369,2.4418,2.4427,2.4432,2.4432,2.4432,2.4432,2.4444,2.444,2.4433,2.4432,2.4432,2.4431,0,2.4118,2.4127,2.4183,2.4208,2.4215,2.4251,2.4273,2.4303,2.4312,2.4354,2.4364,2.4378,2.4416,2.4424,2.4469,2.4471,2.453,2.4526,2.4521,2.452,2.4555,2.4551,2.4668,2.4683,2.4586,2.4587,2.4588,0,2.4169,2.4204,2.4233,2.4255,2.427,2.4306,2.4328,2.4332,2.4355,2.4387,2.4413,2.4451,2.448,2.4541,2.4555,2.4589,2.4586,2.4624,2.4591,2.4589,2.4585,2.4583,2.4586,2.463,2.4631,2.4632,2.4633,0,2.4258,2.4261,2.4293,2.4328,2.4354,2.4381,2.4407,2.4425,2.4432,2.4459,2.4498,2.4521,2.4566,2.4603,2.4637,2.4651,2.4643,2.4643,2.4653,2.4653,2.4649,2.4651,2.4538,2.4641,2.464,2.4639,2.4639,2.4639,2.4322,2.4352,2.4376,2.4413,2.4432,2.4456,2.4486,2.4498,2.453,2.4568,2.4568,2.461,2.4634,2.4679,2.4696,2.4728,2.4716,2.473,2.4734,2.4737,2.474,2.4644,2.4734,2.4734,2.4734,2.4734,2.4734,0,2.441,2.4425,2.4459,2.4494,2.4523,2.4513,2.4541,2.4565,2.4602,2.4626,2.4655,2.4699,2.4734,2.4751,2.4785,2.4808,2.4805,2.4817,2.4815,2.4818,2.475,2.4737,2.4819,2.4819,2.4819,2.4819,2.4819,2.4819,2.4459,2.4509,2.4515,2.4574,2.4589,2.463,2.4647,2.4669,2.4687,2.4737,2.4766,2.4777,2.4797,2.4833,2.4865,2.4869,2.4881,2.4895,2.4897,2.4832,2.4823,2.4815,2.4804,2.4898,2.4898,2.4963,2.4964,2.4964]}]]